Location: Batu Kapal
(3.0333°N, 113.1500°E)
Time: 19:33:35
(UTC+00:00)

Daily predictions for brighter satellites

Satellite Brightness Start Highest point End
(mag) Time Altitude Azimuth Time Altitude Azimuth Time Altitude Azimuth
USA 215 4.3 12:21:28 31° NNW 12:21:28 31° NNW 12:24:41 10° NNW
Resurs 01 Rocket 3.7 12:18:02 10° S 12:19:28 20° S 12:19:28 20° S
Ariane 3 Deb 3.5 12:18:22 10° W 12:22:08 80° SW 12:22:08 80° SW
ARIANE 5 R/B 3.9 12:25:01 10° WSW 12:28:58 65° S 12:28:58 65° S
Cosmos 2082 Rocket 4.2 12:43:56 10° NW 12:48:23 24° WSW 12:52:51 10° SSW
CZ-3 R/B 4.4 18:00:31 10° WSW 19:04:55 42° N 19:13:29 10° NE
Ariane H10+ 4.1 19:30:38 74° WNW 19:32:29 84° N 19:52:14 10° E
ATLAS 2AS CENTAUR RB 4.0 19:40:12 31° NE 19:40:12 31° NE 19:48:56 10° ENE
Cosmos 1943 Rocket 4.2 19:43:47 18° NE 19:45:10 20° ENE 19:49:04 10° ESE
Atlas Centaur 2 3.5 19:49:17 46° NNE 19:49:17 46° NNE 19:54:40 10° NE
SL-16 R/B 4.3 19:42:09 10° SE 19:47:07 25° ENE 19:51:09 14° NNE
Cosmos 2278 Rocket 3.9 19:57:01 22° NE 19:59:10 27° ENE 20:03:53 10° SE
BLOCK DM-SL R/B 4.0 20:02:59 38° ESE 20:02:59 38° ESE 20:09:18 10° E
Cosmos 2173 Rocket 4.4 20:01:15 48° NE 20:02:36 59° E 20:08:42 10° SSE
ASTEX 1 4.2 20:02:19 10° SSE 20:05:52 46° SE 20:05:52 46° SE
BlueWalker 3 3.6 20:23:41 28° SE 20:23:41 28° SE 20:25:30 10° SE
Cosmos 1802 Rocket 4.3 20:19:42 16° N 20:24:39 63° E 20:30:43 10° SSE
Cosmos 407 Rocket 4.4 20:23:03 25° NNE 20:25:39 45° ENE 20:30:35 10° SSE
FALCON 9 R/B 3.3 20:28:45 38° WNW 20:33:24 62° SW 20:38:34 10° SE
Cosmos 44 Rocket 3.7 20:36:04 47° SW 20:36:04 47° SW 20:40:28 10° S
Cosmos 1110 Rocket 3.9 20:32:10 10° SSW 20:37:21 66° WNW 20:42:34 10° N
Cosmos 2016 Rocket 4.2 20:32:02 10° N 20:38:15 69° E 20:44:24 10° S
Aureole 3 4.3 20:33:16 10° S 20:39:53 78° W 20:45:44 10° N
CZ-3C R/B 3.0 20:41:31 11° NNE 20:41:31 11° NNE 20:41:46 10° NE
ARIANE 5 R/B 1.5 20:43:22 57° W 20:44:12 88° N 20:47:32 10° E
Meteor 1-21 Rocket 4.3 20:39:13 10° S 20:45:04 79° E 20:50:48 10° N
FengYun 1-2 T 4.3 20:41:59 10° NNE 20:47:37 82° ESE 20:53:17 10° S
USA 308 3.6 20:45:58 10° SSW 20:49:43 40° SE 20:52:37 10° NE
IRS-1D 4.0 20:46:18 10° NNE 20:51:09 59° ESE 20:56:07 10° S
CZ-2C R/B 4.2 20:55:15 17° SW 20:55:15 17° SW 20:56:34 10° SW
Cosmos 1140 Rocket 4.3 20:54:35 30° WSW 20:54:35 30° WSW 20:58:39 10° SSW
BLOCK DM-SL R/B 3.9 20:54:41 27° WSW 20:57:30 70° S 21:09:14 10° E
ARIANE 44LP R/B 4.4 20:58:29 13° SW 21:01:06 29° SSE 21:10:10 10° ESE
Palapa 6 Rocket 4.5 20:58:41 27° W 21:02:37 50° NNW 21:09:20 10° NE
SWIFT 3.8 21:03:16 16° N 21:04:03 17° NNE 21:06:26 10° ENE
Delta 168 4.4 21:03:31 24° WNW 21:09:18 72° SSW 21:15:32 10° SE
ATLAS 2A CENTAUR R/B 1.2 21:10:29 50° NNW 21:10:49 59° NNE 21:14:14 10° ESE
Cosmos 1818 4.3 21:07:42 10° SW 21:12:15 28° WNW 21:16:48 10° N
Meteor 1-28 Rocket 3.4 21:10:14 10° S 21:13:19 37° W 21:14:14 30° WNW
Cosmos 1452 Rocket 4.0 21:10:36 10° SW 21:15:19 34° WNW 21:20:01 10° NNW
Cosmos 1378 Rocket 3.7 21:13:18 10° SSW 21:17:25 46° W 21:21:29 10° NNW
ARIANE 44L R/B 3.5 21:16:04 11° SW 21:17:39 20° S 21:19:29 10° ESE
Cosmos 1782 Rocket 3.8 21:15:06 12° NNW 21:18:52 45° W 21:22:59 10° SSW
ARIANE 5 R/B 3.0 21:07:38 13° W 21:20:51 74° S 21:24:05 10° E
Cosmos 1300 Rocket 4.1 21:18:01 15° NNW 21:20:59 35° W 21:24:53 10° SSW
Cosmos 2221 Rocket 3.9 21:19:38 10° S 21:24:07 72° E 21:28:36 10° N
UNK 3.7 21:20:48 10° S 21:25:17 64° WSW 21:29:46 10° NNW
Cosmos 1943 Rocket 3.1 21:25:21 16° WNW 21:28:34 26° WSW 21:33:07 10° SSW
Cosmos 1943 4.2 21:25:35 10° WSW 21:29:47 22° WNW 21:33:58 10° NNW
Cosmos 2251 Rocket 3.5 21:24:51 10° NNW 21:30:07 67° WSW 21:35:23 10° S
SL-16 R/B 3.4 21:25:13 10° SSW 21:30:21 28° WSW 21:35:32 10° NW
Atlas Centaur 2 4.1 21:31:18 13° WNW 21:36:10 22° NNW 21:41:39 10° NNE
Cosmos 1603 3.9 21:31:53 10° SSW 21:37:23 48° WNW 21:42:52 10° N
Cosmos 2233 Rocket 4.3 21:32:54 10° NNW 21:38:41 42° W 21:44:25 10° SSW
Meteor 1-11 4.5 21:33:11 10° SSW 21:38:47 51° W 21:44:26 10° N
CZ-4 R/B 4.3 21:34:51 10° N 21:39:06 36° WNW 21:43:20 10° SW
Cosmos 1812 2.1 21:37:35 10° N 21:40:26 74° E 21:43:18 10° S
Cosmos 2278 Rocket 3.5 21:38:55 10° WNW 21:42:55 20° WSW 21:46:58 10° SSW
GPS 2-17 Rocket1 3.3 21:41:44 10° W 21:45:58 52° SSW 21:50:06 10° SE
Cosmos 1484 Rocket 2.7 21:43:17 10° NNE 21:46:43 76° E 21:50:08 10° S
Cosmos 2061 Rocket 4.4 21:41:15 10° NNW 21:46:58 40° W 21:52:48 10° SSW
Cosmos 1441 Rocket 2.8 21:44:22 10° S 21:47:44 88° WNW 21:51:03 10° N
Cosmos 2369 Rocket 4.1 21:47:12 10° NNE 21:52:11 31° ENE 21:57:10 10° SE
